New Iberia, LA

9:48 AM CDT on April 23, 2017 (GMT -0500)
Acadiana Regional

Weather History for KARA - March, 2014

Change the Weather History Date:

Thursday, March 6, 2014

  Actual Average Record
Temperature  
Mean Temperature 50 °F 60 °F  
Max Temperature 54 °F 70 °F 85 °F (1955)
Min Temperature 46 °F 50 °F 27 °F (1989)
Degree Days  
Heating Degree Days 15 6  
Month to date heating degree days 76 40  
Since 1 July heating degree days 1600 1256  
Cooling Degree Days 0 1  
Month to date cooling degree days 8 6  
Year to date cooling degree days 26 37  
Moisture  
Dew Point 44 °F    
Average Humidity 82    
Maximum Humidity 93    
Minimum Humidity 71    
Precipitation  
Precipitation 0.00 in 0.15 in 1.13 in (1969)
Month to date precipitation 0.56 0.86  
Year to date precipitation 8.90 10.27  
Sea Level Pressure  
Sea Level Pressure 30.04 in    
Wind  
Wind Speed 12 mph (NNW)    
Max Wind Speed 20 mph    
Max Gust Speed 23 mph    
Visibility 9 miles    
Events      
T = Trace of Precipitation, MM = Missing Value Source: NWS Daily Summary

Daily Weather History Graph

Daily Weather History Graph

Search for Another Location

Airport or City:

Trip Planner

Search our weather history database for the weather conditions in past years. The results will help you decide how hot, cold, wet, or windy it might be!

Date:

Astronomy

Mar. 06, 2014 Rise Set
Actual Time 6:27 AM CST 6:10 PM CST
Civil Twilight 6:03 AM CST 6:33 PM CST
Nautical Twilight 5:36 AM CST 7:01 PM CST
Astronomical Twilight 5:08 AM CST 7:29 PM CST
Moon 10:00 AM CST (3/6) 11:50 PM CST (3/6)
Length of Visible Light 12h 30m
Length of Day
11h 42m
Waxing Crescent, 32% of the Moon is Illuminated
Mar 6
Waxing Crescent
Mar 8
First Quarter
Mar 16
Full
Mar 23
Last Quarter
Mar 30
New

Hourly Weather History & Observations

Time (CST) Temp. Windchill Dew Point Humidity Pressure Visibility Wind Dir Wind Speed Gust Speed Precip Events Conditions
12:06 AM 48.9 °F - 45.0 °F 86% 30.02 in 9.0 mi NNE 9.2 mph - N/A   Scattered Clouds
12:53 AM 48.9 °F - 45.0 °F 86% 30.02 in 8.0 mi NNW 8.1 mph - N/A   Scattered Clouds
1:04 AM 48.9 °F - 46.0 °F 90% 30.02 in 8.0 mi NNW 6.9 mph - N/A   Mostly Cloudy
1:15 AM 48.9 °F - 46.0 °F 90% 30.02 in 8.0 mi NNW 4.6 mph - N/A   Overcast
1:50 AM 48.2 °F - 46.4 °F 93% 30.01 in 8.0 mi North 5.8 mph - N/A   Overcast
1:53 AM 50.0 °F - 46.0 °F 86% 30.01 in 8.0 mi North 6.9 mph - N/A   Overcast
2:53 AM 50.0 °F - 45.0 °F 83% 30.01 in 9.0 mi NNW 11.5 mph - N/A   Overcast
3:38 AM 48.9 °F - 45.0 °F 86% 30.02 in 7.0 mi North 10.4 mph - N/A   Overcast
3:53 AM 48.9 °F - 46.0 °F 90% 30.01 in 7.0 mi North 5.8 mph - N/A   Overcast
4:03 AM 48.9 °F - 46.0 °F 90% 30.02 in 7.0 mi North 6.9 mph - N/A   Overcast
4:53 AM 50.0 °F - 46.0 °F 86% 30.02 in 7.0 mi North 8.1 mph - N/A   Overcast
5:53 AM 48.9 °F - 46.0 °F 90% 30.02 in 4.0 mi North 8.1 mph - N/A   Overcast
6:53 AM 48.0 °F - 46.0 °F 93% 30.03 in 7.0 mi NNW 11.5 mph - N/A   Overcast
7:53 AM 48.0 °F - 45.0 °F 89% 30.04 in 7.0 mi NW 11.5 mph - N/A   Overcast
8:53 AM 48.0 °F - 44.1 °F 86% 30.07 in 10.0 mi NNW 13.8 mph - N/A   Overcast
9:53 AM 48.9 °F - 44.1 °F 83% 30.07 in 10.0 mi NNW 10.4 mph - N/A   Overcast
10:19 AM 48.9 °F - 43.0 °F 80% 30.08 in 10.0 mi North 11.5 mph - N/A   Overcast
10:53 AM 48.9 °F - 44.1 °F 83% 30.07 in 10.0 mi NNW 13.8 mph - N/A   Overcast
11:53 AM 51.1 °F - 44.1 °F 77% 30.06 in 10.0 mi NNW 12.7 mph - N/A   Overcast
12:19 PM 52.0 °F - 44.1 °F 74% 30.06 in 10.0 mi NNW 13.8 mph - N/A   Overcast
12:53 PM 53.1 °F - 44.1 °F 71% 30.04 in 10.0 mi NNW 18.4 mph - N/A   Overcast
1:53 PM 52.0 °F - 43.0 °F 71% 30.04 in 10.0 mi NNW 15.0 mph - N/A   Overcast
2:53 PM 52.0 °F - 44.1 °F 74% 30.03 in 10.0 mi NNW 15.0 mph - N/A   Overcast
3:53 PM 50.0 °F - 43.0 °F 77% 30.04 in 10.0 mi NNW 16.1 mph - N/A   Overcast
4:53 PM 50.0 °F - 42.1 °F 74% 30.04 in 10.0 mi NNW 13.8 mph - N/A   Overcast
5:38 PM 48.0 °F - 42.1 °F 80% 30.05 in 10.0 mi North 13.8 mph - N/A   Overcast
5:53 PM 46.9 °F - 42.1 °F 83% 30.06 in 10.0 mi North 17.3 mph - N/A   Overcast
6:53 PM 46.9 °F - 42.1 °F 83% 30.06 in 10.0 mi North 12.7 mph - N/A   Overcast
7:53 PM 46.9 °F - 42.1 °F 83% 30.06 in 10.0 mi North 12.7 mph - N/A   Overcast
8:53 PM 46.0 °F 39.3 °F 42.1 °F 86% 30.07 in 10.0 mi North 16.1 mph - N/A   Overcast
9:53 PM 46.0 °F 41.0 °F 41.0 °F 83% 30.09 in 10.0 mi North 10.4 mph - N/A   Overcast
10:53 PM 46.0 °F 41.4 °F 41.0 °F 83% 30.10 in 10.0 mi North 9.2 mph - N/A   Overcast
11:53 PM 46.0 °F 42.5 °F 41.0 °F 83% 30.09 in 10.0 mi North 6.9 mph - N/A   Overcast